Regional Weather Roundup
Issued by NWS Newport/Morehead, NC

Current Version | Previous Version | Graphics & Text | Print | Product List | Glossary Off
Versions: 1 2 3 4 5 6 7 8 9 10 11 12 13 14 15 16 17 18 19 20 21 22 23 24 25 26 27 28 29 30 31 32 33 34 35 36 37 38 39 40 41 42 43 44 45 46 47 48 49 50

000
ASUS42 KMHX 310625
RWRMHX
WEATHER ROUNDUP FOR EASTERN NORTH CAROLINA
NATIONAL WEATHER SERVICE NEWPORT/MOREHEAD CITY NC
200 AM EDT WED AUG 31 2016

NOTE: "FAIR" INDICATES FEW OR NO CLOUDS BELOW 12,000 FEET
WITH NO SIGNIFICANT WEATHER AND/OR OBSTRUCTIONS TO VISIBILITY

NCZ015>017-031-032-045>047-102-103-310700-
NORTH COAST

CITY           SKY/WX    TMP DP  RH WIND       PRES   REMARKS
EDENTON        CLEAR    N/A N/A N/A CALM      30.01S HAZE
ELIZABETH CITY CLEAR     77  75  93 N6        30.01R
KITTY HAWK     CLEAR     79  78  96 NE3       29.98S
MANTEO         CLEAR     78  76  92 E8        29.99S

$$

NCZ045>047-081-094-103-104-310700-
CENTRAL COAST

CITY           SKY/WX    TMP DP  RH WIND       PRES   REMARKS
FRISCO         PTCLDY    77  74  90 NE5       29.97S

$$

NCZ095-097-098-100-101-310700-
SOUTHERN COAST

CITY           SKY/WX    TMP DP  RH WIND       PRES   REMARKS
BEAUFORT       PTCLDY    76  75  97 CALM      29.99R
CEDAR ISLAND   NOT AVBL
JACKSONVILLE   CLEAR     75  73  93 CALM      30.00S
PINEY ISLAND   PTCLDY   N/A N/A N/A N6        29.98
WILMINGTON     CLEAR     74  73  97 CALM      30.01S


$$

NCZ011>013-027>030-043-044-078>080-089-090>093-098-310700-
COASTAL PLAIN

CITY           SKY/WX    TMP DP  RH WIND       PRES   REMARKS
AHOSKIE        NOT AVBL
CLINTON        PTCLDY    74  74 100 CALM      30.03S
ELIZABETHTOWN  CLOUDY    78  75  91 CALM      30.02S
GOLDSBORO      PTCLDY    76  76 100 CALM      30.00F
GREENVILLE     PTCLDY    72  70  94 CALM      30.03S FOG
HAVELOCK       PTCLDY    77  75  93 N5        30.00S
KENANSVILLE    PTCLDY    72  70  94 CALM      30.02S
KINSTON        CLOUDY    73  72  97 CALM      30.02S
NEW BERN       PTCLDY    75  73  93 CALM      30.01S
RICHLANDS      PTCLDY    72  71  97 CALM      30.02R
ROCKY MOUNT    PTCLDY    71  71 100 CALM      30.03S
WASHINGTON     CLEAR     73  73  99 CALM      30.01S
WHITEVILLE     CLEAR     76  74  95 CALM      30.01S

$$

AMZ130-135-150-152-154-156-158-170-250-252-270-ANZ085-086-088-633-658-670-310700-
MARINE OBSERVATIONS

STATION/POSITION TIME  TEMP    WIND        PRES    WAVE   SWELL
                       AIR SEA DIR/SP/G            HT/PER HT/PER
                 (UTC) (F)     (DEG/KT/KT) (MB)    (FT/S) (FT/S)
CHESAPEAKE LIGHT NOT AVBL
64 E VA BEACH    0550   80 80   60/ 14/ 16 1015.4    4/11   3/11
DUCK             0600   80 80   60/ 13/ 15 1015.2
2 E DUCK         0511      79                N/A     4/10   2/12
OREGON INLET     0600   79 82   70/  7/ 10 1015.1
13E OREGON INLT  0500      80                N/A     5/11   5/11
HATTERAS CG      0600   79 83   40/  9/ 11 1014.3
DIAMOND BUOY     0550   81 84   50/  6/  8 1014.3    5/11   5/11
CAPE LOOKOUT     0600   79      10/  6/  7 1015.0
BEAUFORT LAB     0600   79 81  350/  3/  4 1014.8
30 SE NEW RVR IN 0608   82 84   10/  8/ 10 1015.5
30 SE NEW RVR IN 0525      84                N/A     4/11   2/11
27 SE WRIGHTSVLE 0608   82 84  350/  4/  8 1015.9
5 SE WRIGHTSVLE  0608   80 83  340/  4/  6 1016.8
225 S CAPE HAT   0550   83 83  210/ 14/ 16 1015.9    4/11   3/11
41 SE CHARLESTON 0550   83 84  140/  6/  8 1015.0    4/11   3/11

$$




USA.gov is the U.S. government's official web portal to all federal, state and local government web resources and services.